Pineville, WV

9:29 PM EDT on September 25, 2017 (GMT -0400)
Pineville

Weather History for KI16 - September, 2012

Change the Weather History Date:

Tuesday, September 18, 2012

  Actual Average (KBKW) Record (KBKW)
Temperature  
Mean Temperature 64 °F -  
Max Temperature 68 °F 71 °F 90 °F (1931)
Min Temperature 59 °F 54 °F 29 °F (1937)
Degree Days  
Heating Degree Days 2    
Growing Degree Days 14 (Base 50)    
Moisture  
Dew Point 65 °F    
Average Humidity 98    
Maximum Humidity 100    
Minimum Humidity 91    
Precipitation  
Precipitation 0.00 in - - ()
Sea Level Pressure  
Sea Level Pressure 29.83 in    
Wind  
Wind Speed - (North)    
Max Wind Speed -    
Max Gust Speed -    
Visibility 6 miles    
Events Rain    
Averages and records for this station are not official NWS values.
T = Trace of Precipitation, MM = Missing Value Source: NWS Daily Summary

Daily Weather History Graph

Daily Weather History Graph

Search for Another Location

Airport or City:

Trip Planner

Search our weather history database for the weather conditions in past years. The results will help you decide how hot, cold, wet, or windy it might be!

Date:

Astronomy

Sep. 18, 2012 Rise Set
Actual Time 7:11 AM EDT 7:28 PM EDT
Civil Twilight 6:44 AM EDT 7:54 PM EDT
Nautical Twilight 6:14 AM EDT 8:25 PM EDT
Astronomical Twilight 5:42 AM EDT 8:56 PM EDT
Moon 10:04 AM EDT (9/18) 8:55 PM EDT (9/18)
Length of Visible Light 13h 09m
Length of Day
12h 17m
Waxing Crescent, 9% of the Moon is Illuminated
Sep 18
Waxing Crescent
Sep 22
First Quarter
Sep 29
Full
Oct 8
Last Quarter
Oct 15
New

Hourly Weather History & Observations

Time (EDT) Temp. Dew Point Humidity Pressure Visibility Wind Dir Wind Speed Gust Speed Precip Events Conditions
12:15 AM 65.7 °F 65.7 °F 100% 29.90 in 5.0 mi North - - N/A Rain Rain
12:35 AM 65.7 °F 65.7 °F 100% 29.89 in 5.0 mi North - - N/A Rain Rain
12:55 AM 66.2 °F 66.2 °F 100% 29.87 in 7.0 mi North - - N/A Rain Rain
1:15 AM 66.2 °F 66.2 °F 100% 29.85 in 10.0 mi North - - N/A Rain Rain
1:35 AM 65.8 °F 65.8 °F 100% 29.84 in 3.0 mi North - - N/A Rain Rain
1:55 AM 65.8 °F 65.8 °F 100% 29.83 in 3.0 mi North - - N/A Rain Rain
2:15 AM 66.0 °F 66.0 °F 100% 29.82 in 7.0 mi North - - N/A Rain Light Rain
2:35 AM 66.4 °F 66.4 °F 100% 29.80 in 7.0 mi North - - N/A Rain Light Rain
2:55 AM 66.7 °F 66.7 °F 100% 29.79 in 7.0 mi North - - N/A Rain Rain
3:15 AM 66.6 °F 66.6 °F 100% 29.79 in 4.0 mi North - - N/A Rain Rain
3:35 AM 67.1 °F 67.1 °F 100% 29.77 in 4.0 mi North - - N/A Rain Heavy Rain
3:55 AM 67.1 °F 67.1 °F 100% 29.76 in 5.0 mi North - - N/A Rain Rain
4:15 AM 66.9 °F 66.9 °F 100% 29.76 in 2.5 mi North - - N/A Rain Heavy Rain
4:35 AM 67.1 °F 67.1 °F 100% 29.74 in 1.0 mi North - - N/A Rain Heavy Rain
4:55 AM 66.7 °F 66.7 °F 100% 29.74 in 7.0 mi North - - N/A Rain Light Rain
5:15 AM 67.1 °F 67.1 °F 100% 29.74 in 2.5 mi North - - N/A Rain Heavy Rain
5:35 AM 67.1 °F 67.1 °F 100% 29.73 in 3.0 mi North - - N/A Rain Rain
5:55 AM 66.7 °F 66.7 °F 100% 29.74 in 2.5 mi North - - N/A Rain Heavy Rain
6:15 AM 67.1 °F 67.1 °F 100% 29.74 in 2.0 mi North - - N/A Rain Heavy Rain
6:35 AM 66.7 °F 66.7 °F 100% 29.74 in 2.0 mi North - - N/A Rain Heavy Rain
6:55 AM 66.6 °F 66.6 °F 100% 29.75 in 2.5 mi North - - N/A Rain Heavy Rain
7:15 AM 66.7 °F 66.7 °F 100% 29.75 in 4.0 mi North - - N/A Rain Rain
7:35 AM 66.6 °F 66.6 °F 100% 29.75 in 7.0 mi North - - N/A Rain Light Rain
7:55 AM 66.2 °F 66.2 °F 100% 29.75 in 2.5 mi North - - N/A Rain Heavy Rain
8:15 AM 65.7 °F 65.7 °F 100% 29.77 in 5.0 mi North - - N/A Rain Rain
8:35 AM 65.3 °F 65.3 °F 100% 29.77 in 5.0 mi North - - N/A Rain Rain
8:55 AM 65.5 °F 65.5 °F 100% 29.79 in 7.0 mi North - - N/A Rain Light Rain
9:35 AM 65.5 °F 65.5 °F 100% 29.79 in 10.0 mi North - - N/A Rain Light Rain
9:55 AM 65.8 °F 65.8 °F 100% 29.79 in 10.0 mi North - - N/A   Overcast
10:15 AM 65.7 °F 65.5 °F 99% 29.80 in 7.0 mi North - - N/A Rain Rain
10:35 AM 65.7 °F 65.5 °F 99% 29.79 in 10.0 mi North - - N/A Rain Light Rain
10:55 AM 65.5 °F 65.3 °F 99% 29.80 in 10.0 mi North - - N/A Rain Light Rain
11:15 AM 65.8 °F 65.7 °F 99% 29.80 in 10.0 mi North - - N/A Rain Light Rain
11:35 AM 66.0 °F 65.8 °F 99% 29.81 in 7.0 mi North - - N/A Rain Light Rain
11:55 AM 65.8 °F 65.5 °F 99% 29.81 in 10.0 mi North - - N/A   Drizzle
12:15 PM 66.2 °F 65.8 °F 99% 29.80 in 10.0 mi North - - N/A   Light Drizzle
12:35 PM 66.2 °F 65.5 °F 98% 29.81 in 10.0 mi North - - N/A   Overcast
12:55 PM 66.9 °F 65.8 °F 96% 29.82 in 10.0 mi North - - N/A   Overcast
1:15 PM 67.8 °F 66.2 °F 95% 29.81 in 10.0 mi North - - N/A   Overcast
1:35 PM 68.4 °F 66.2 °F 93% 29.82 in 10.0 mi North - - N/A   Overcast
1:55 PM 67.8 °F 66.2 °F 95% 29.81 in 10.0 mi North - - N/A   Overcast
2:15 PM 67.6 °F 66.2 °F 95% 29.81 in 10.0 mi North - - N/A   Overcast
2:35 PM 68.0 °F 66.2 °F 94% 29.80 in 10.0 mi North - - N/A   Overcast
3:15 PM 68.9 °F 66.2 °F 91% 29.80 in 10.0 mi North - - N/A   Overcast
3:35 PM 68.0 °F 66.4 °F 95% 29.80 in 3.0 mi North - - N/A Rain Rain
3:55 PM 66.7 °F 66.2 °F 98% 29.81 in 1.8 mi North - - N/A Rain Heavy Rain
4:15 PM 66.2 °F 65.3 °F 97% 29.82 in 4.0 mi North - - N/A   Drizzle
4:35 PM 66.2 °F 65.3 °F 97% 29.82 in 10.0 mi North - - N/A   Light Drizzle
4:55 PM 67.1 °F 65.7 °F 95% 29.83 in 10.0 mi North - - N/A   Mostly Cloudy
5:15 PM 66.9 °F 65.3 °F 95% 29.83 in 5.0 mi North - - N/A   Overcast
5:35 PM 66.2 °F 65.3 °F 97% 29.83 in 1.5 mi North - - N/A   Heavy Drizzle
5:55 PM 65.5 °F 64.9 °F 98% 29.84 in 2.5 mi North - - N/A Rain Heavy Rain
6:15 PM 65.3 °F 64.9 °F 99% 29.86 in 2.5 mi North - - N/A   Overcast
6:35 PM 65.3 °F 65.3 °F 100% 29.86 in 2.5 mi North - - N/A   Overcast
6:55 PM 65.3 °F 65.3 °F 100% 29.88 in 4.0 mi North - - N/A Rain Rain
7:15 PM 64.4 °F 63.5 °F 97% 29.90 in 7.0 mi North - - N/A Rain Light Rain
7:35 PM 64.0 °F 62.6 °F 95% 29.91 in 10.0 mi North - - N/A   Overcast
7:55 PM 63.5 °F 61.5 °F 93% 29.92 in 10.0 mi North - - N/A   Overcast
8:15 PM 62.6 °F 61.2 °F 95% 29.93 in 10.0 mi North - - N/A   Overcast
8:35 PM 61.7 °F 61.0 °F 97% 29.94 in 7.0 mi North - - N/A   Overcast
8:55 PM 61.2 °F 61.0 °F 99% 29.96 in 7.0 mi North - - N/A   Overcast
9:15 PM 61.2 °F 61.0 °F 99% 29.97 in 7.0 mi North - - N/A   Overcast
9:35 PM 61.0 °F 61.0 °F 100% 29.98 in 7.0 mi North - - N/A   Overcast
9:55 PM 61.0 °F 61.0 °F 100% 29.98 in 5.0 mi North - - N/A   Overcast
10:15 PM 60.8 °F 60.8 °F 100% 29.99 in 5.0 mi North - - N/A   Overcast
10:35 PM 60.8 °F 60.8 °F 100% 30.00 in 4.0 mi North - - N/A   Overcast
11:15 PM 60.3 °F 60.3 °F 100% 30.01 in 5.0 mi North - - N/A   Overcast
11:35 PM 59.7 °F 59.7 °F 100% 30.01 in 7.0 mi North - - N/A   Overcast
11:55 PM 59.5 °F 59.5 °F 100% 30.02 in 10.0 mi North - - N/A   Overcast